Date String (YYYY-MM-DD hh:mm:ss) UTC,Instrument flags,absolute air pressure of the measurement (hPa),sample flow rate (lpm),inlet stack bypass flow (lpm),air temperature of the measurement (°C),ambient temperature measured by the external sensor (°C),aerosol sample conditioner tube jacket temperature (°C),OPC LED temperature (°C),internal box temperature (°C),relative humidity of the measurement (%),span deviation,mass concentration of particles derived from Lorenz-Mie calculation of OPC scattering (μg/m³),mass concentration of particles derived from Lorenz-Mie calculation of OPC scattering (μg/m³),mass concentration of particles derived from Lorenz-Mie calculation of OPC scattering (μg/m³)
DateTimeUTC,F1_M11,P_M11,Q1_M11,Q2_M11,T1_M11,T2_M11,T3_M11,T4_M11,T5_M11,U1_M11,ZSPAN_M11,X2_M11,X0_M11,X1_M11
2024-04-01 23:00:00,SystemResetWarning,0822.5,5.01,000.00,021.7,020.8,000.0,030.2,023.5,24.8,0000.0,0001.69,0003.88,0001.20
2024-04-01 23:01:00,SystemResetWarning,0823.1,5.01,000.00,021.7,020.8,000.0,030.2,023.5,24.7,0000.0,0001.67,0003.71,0001.19
2024-04-01 23:02:00,SystemResetWarning,0823.1,5.01,000.00,021.7,020.8,000.0,030.2,023.5,24.7,0000.0,0001.68,0003.76,0001.18
2024-04-01 23:03:00,SystemResetWarning,0823.0,4.99,000.00,021.7,020.9,000.0,030.2,023.5,24.6,0000.0,0001.66,0003.71,0001.17
2024-04-01 23:04:00,SystemResetWarning,0823.0,4.99,000.00,021.7,020.9,000.0,030.2,023.5,24.6,0000.0,0001.64,0003.97,0001.16
2024-04-01 23:05:00,SystemResetWarning,0823.1,5.00,000.00,021.7,020.9,000.0,030.2,023.5,24.7,0000.0,0001.61,0005.27,0001.15
2024-04-01 23:06:00,SystemResetWarning,0823.0,5.01,000.00,021.7,020.9,000.0,030.2,023.5,24.9,0000.0,0001.55,0005.01,0001.15
2024-04-01 23:07:00,SystemResetWarning,0823.0,5.01,000.00,021.7,020.9,000.0,030.2,023.5,24.9,0000.0,0001.53,0004.94,0001.14
2024-04-01 23:08:00,SystemResetWarning,0822.9,5.00,000.00,021.7,020.9,000.0,030.2,023.5,25.0,0000.0,0001.52,0004.94,0001.13
2024-04-01 23:09:00,SystemResetWarning,0822.8,5.00,000.00,021.7,020.9,000.0,030.2,023.5,24.8,0000.0,0001.50,0004.94,0001.13
2024-04-01 23:10:00,SystemResetWarning,0822.6,5.00,000.00,021.7,020.9,000.0,030.2,023.5,24.7,0000.0,0001.52,0005.09,0001.12
2024-04-01 23:11:00,SystemResetWarning,0822.7,5.00,000.00,021.7,020.9,000.0,030.2,023.5,24.7,0000.0,0001.52,0005.00,0001.12
2024-04-01 23:12:00,SystemResetWarning,0822.7,5.00,000.00,021.7,020.9,000.0,030.2,023.5,24.8,0000.0,0001.57,0004.71,0001.14
2024-04-01 23:13:00,SystemResetWarning,0822.7,5.00,000.00,021.7,020.9,000.0,030.2,023.5,24.8,0000.0,0001.59,0004.52,0001.14
2024-04-01 23:14:00,SystemResetWarning,0822.6,5.00,000.00,021.7,020.9,000.0,030.2,023.5,24.9,0000.0,0001.60,0004.47,0001.14
2024-04-01 23:15:00,SystemResetWarning,0822.7,5.00,000.00,021.7,020.9,000.0,030.2,023.5,25.1,0000.0,0001.61,0004.52,0001.14
2024-04-01 23:16:00,SystemResetWarning,0822.7,5.01,000.00,021.7,020.9,000.0,030.2,023.5,25.1,0000.0,0001.59,0002.84,0001.13
2024-04-01 23:17:00,SystemResetWarning,0822.7,5.00,000.00,021.7,020.9,000.0,030.2,023.5,25.0,0000.0,0001.59,0002.83,0001.13
2024-04-01 23:18:00,SystemResetWarning,0822.8,5.00,000.00,021.7,020.9,000.0,030.2,023.5,24.7,0000.0,0001.57,0002.80,0001.11
2024-04-01 23:19:00,SystemResetWarning,0823.1,5.00,000.00,021.7,020.9,000.0,030.2,023.5,24.6,0000.0,0001.57,0002.79,0001.10
2024-04-01 23:20:00,SystemResetWarning,0823.1,5.00,000.00,021.7,020.9,000.0,030.2,023.5,24.8,0000.0,0001.53,0002.59,0001.08
2024-04-01 23:21:00,SystemResetWarning,0822.9,5.00,000.00,021.7,020.9,000.0,030.2,023.5,24.8,0000.0,0001.45,0002.31,0001.06
2024-04-01 23:22:00,SystemResetWarning,0823.1,5.00,000.00,021.7,020.9,000.0,030.2,023.5,24.8,0000.0,0001.45,0002.30,0001.04
2024-04-01 23:23:00,SystemResetWarning,0823.0,5.00,000.00,021.7,020.9,000.0,030.2,023.5,24.7,0000.0,0001.42,0002.23,0001.02
2024-04-01 23:24:00,SystemResetWarning,0823.0,5.00,000.00,021.7,020.9,000.0,030.2,023.5,24.8,0000.0,0001.34,0002.07,0001.00
2024-04-01 23:25:00,SystemResetWarning,0823.0,5.00,000.00,021.7,020.9,000.0,030.2,023.5,24.6,0000.0,0001.27,0001.85,0000.97
2024-04-01 23:26:00,SystemResetWarning,0823.1,5.00,000.00,021.7,020.8,000.0,030.2,023.5,24.7,0000.0,0001.24,0001.67,0000.95
2024-04-01 23:27:00,SystemResetWarning,0823.1,5.00,000.00,021.7,020.8,000.0,030.2,023.5,24.8,0000.0,0001.22,0001.65,0000.94
2024-04-01 23:28:00,SystemResetWarning,0823.1,5.00,000.00,021.7,020.8,000.0,030.2,023.5,24.9,0000.0,0001.17,0001.64,0000.92
2024-04-01 23:29:00,SystemResetWarning,0823.2,5.00,000.00,021.7,020.8,000.0,030.2,023.5,25.0,0000.0,0001.16,0001.62,0000.90
2024-04-01 23:30:00,SystemResetWarning,0823.2,5.00,000.00,021.7,020.8,000.0,030.2,023.5,24.9,0000.0,0001.12,0001.58,0000.88
2024-04-01 23:31:00,SystemResetWarning,0823.3,5.00,000.00,021.7,020.8,000.0,030.2,023.5,25.0,0000.0,0001.13,0001.61,0000.88
2024-04-01 23:32:00,SystemResetWarning,0823.3,5.00,000.00,021.7,020.8,000.0,030.2,023.5,25.2,0000.0,0001.17,0001.75,0000.88
2024-04-01 23:33:00,SystemResetWarning,0823.3,4.99,000.00,021.7,020.8,000.0,030.2,023.5,25.2,0000.0,0001.22,0001.91,0000.89
2024-04-01 23:34:00,SystemResetWarning,0823.3,5.00,000.00,021.7,020.8,000.0,030.2,023.5,25.1,0000.0,0001.20,0001.95,0000.90
2024-04-01 23:35:00,SystemResetWarning,0823.4,5.00,000.00,021.6,020.8,000.0,030.2,023.5,25.0,0000.0,0001.19,0001.94,0000.91
2024-04-01 23:36:00,SystemResetWarning,0823.4,5.00,000.00,021.6,020.8,000.0,030.2,023.5,25.0,0000.0,0001.20,0001.95,0000.92
2024-04-01 23:37:00,SystemResetWarning,0823.5,5.01,000.00,021.7,020.8,000.0,030.2,023.5,25.0,0000.0,0001.22,0002.00,0000.94
2024-04-01 23:38:00,SystemResetWarning,0823.4,5.01,000.00,021.7,020.8,000.0,030.2,023.5,25.2,0000.0,0001.25,0002.06,0000.97
2024-04-01 23:39:00,SystemResetWarning,0823.4,5.01,000.00,021.7,020.8,000.0,030.2,023.5,25.2,0000.0,0001.29,0002.05,0000.99
2024-04-01 23:40:00,SystemResetWarning,0823.5,5.01,000.00,021.6,020.9,000.0,030.2,023.5,25.2,0000.0,0001.31,0002.10,0001.01
2024-04-01 23:41:00,SystemResetWarning,0823.5,5.01,000.00,021.6,020.9,000.0,030.2,023.5,25.3,0000.0,0001.36,0002.24,0001.04
2024-04-01 23:42:00,SystemResetWarning,0823.5,4.99,000.00,021.7,020.9,000.0,030.2,023.5,25.3,0000.0,0001.37,0002.33,0001.05
2024-04-01 23:43:00,SystemResetWarning,0823.4,4.99,000.00,021.7,020.9,000.0,030.2,023.5,25.4,0000.0,0001.40,0002.38,0001.08
2024-04-01 23:44:00,SystemResetWarning,0823.4,4.99,000.00,021.6,020.9,000.0,030.2,023.5,25.3,0000.0,0001.40,0002.30,0001.08
2024-04-01 23:45:00,SystemResetWarning,0823.5,5.01,000.00,021.6,020.9,000.0,030.2,023.5,25.1,0000.0,0001.42,0002.26,0001.08
2024-04-01 23:46:00,SystemResetWarning,0823.5,5.01,000.00,021.6,020.9,000.0,030.2,023.5,24.8,0000.0,0001.42,0002.25,0001.07
2024-04-01 23:47:00,SystemResetWarning,0823.5,5.00,000.00,021.6,020.9,000.0,030.2,023.5,24.6,0000.0,0001.41,0002.28,0001.05
2024-04-01 23:48:00,SystemResetWarning,0823.6,5.00,000.00,021.6,020.9,000.0,030.2,023.5,24.6,0000.0,0001.41,0002.31,0001.03
2024-04-01 23:49:00,SystemResetWarning,0823.6,4.99,000.00,021.6,020.9,000.0,030.2,023.5,24.6,0000.0,0001.42,0002.38,0001.02
2024-04-01 23:50:00,SystemResetWarning,0823.6,5.00,000.00,021.6,020.8,000.0,030.2,023.5,24.8,0000.0,0001.43,0002.42,0001.01
2024-04-01 23:51:00,SystemResetWarning,0823.6,5.00,000.00,021.6,020.8,000.0,030.2,023.5,24.8,0000.0,0001.47,0002.55,0001.00
2024-04-01 23:52:00,SystemResetWarning,0823.6,5.00,000.00,021.6,020.8,000.0,030.2,023.4,24.6,0000.0,0001.46,0002.53,0000.99
2024-04-01 23:53:00,SystemResetWarning,0823.6,5.01,000.00,021.6,020.8,000.0,030.2,023.5,24.6,0000.0,0001.43,0002.37,0000.96
2024-04-01 23:54:00,SystemResetWarning,0823.6,5.01,000.00,021.6,020.8,000.0,030.2,023.5,24.5,0000.0,0001.39,0002.24,0000.94
2024-04-01 23:55:00,SystemResetWarning,0823.6,5.01,000.00,021.6,020.8,000.0,030.2,023.5,24.4,0000.0,0001.34,0002.18,0000.92
2024-04-01 23:56:00,SystemResetWarning,0823.7,5.00,000.00,021.6,020.8,000.0,030.2,023.5,24.4,0000.0,0001.30,0002.09,0000.91
2024-04-01 23:57:00,SystemResetWarning,0823.6,5.00,000.00,021.6,020.8,000.0,030.2,023.5,24.4,0000.0,0001.31,0002.10,0000.92
2024-04-01 23:58:00,SystemResetWarning,0823.6,5.00,000.00,021.6,020.8,000.0,030.2,023.5,24.4,0000.0,0001.35,0002.18,0000.94
2024-04-01 23:59:00,SystemResetWarning,0823.7,5.00,000.00,021.6,020.8,000.0,030.2,023.4,24.4,0000.0,0001.38,0002.28,0000.95
